AS428 Weather Reports


time (UTC)temp
C
wind
direction
speed
KPH
gust
KPH
rain 1hr
cm
rain 24hr
cm
rain mn
cm
humidity
%
barometer
mb
20260905172528 33 222 4.8 8.0 0.00 0.00 0.00 52 1015.9
20260905171626 33 165 6.4 8.0 0.00 0.00 0.00 53 1016.1
20260905170628 32 164 4.8 9.7 0.00 0.00 0.00 53 1016.4
20260905165726 32 225 3.2 4.8 0.00 0.00 0.00 54 1016.6
20260905164728 31 170 6.4 9.7 0.00 0.00 0.00 56 1016.4
20260905163826 31 139 3.2 6.4 0.00 0.00 0.00 56 1016.3
20260905162827 31 228 4.8 6.4 0.00 0.00 0.00 57 1016.3
20260905161926 31 122 6.4 8.0 0.00 0.00 0.00 56 1016.3
20260905160927 31 160 4.8 6.4 0.00 0.00 0.00 57 1016.7
20260905155928 30 91 1.6 6.4 0.00 0.00 0.00 59 1017.0
20260905154930 30 162 1.6 8.0 0.00 0.00 0.00 59 1017.0
20260905154026 30 210 4.8 9.7 0.00 0.00 0.00 61 1017.0
20260905153028 29 161 3.2 4.8 0.00 0.00 0.00 61 1017.0
20260905152127 28 163 3.2 8.0 0.00 0.00 0.00 63 1016.8
20260905151127 28 68 4.8 9.7 0.00 0.00 0.00 64 1016.8
20260905150226 27 154 8.0 12.9 0.00 0.00 0.00 65 1016.7
20260905144228 27 157 8.0 14.5 0.00 0.00 0.00 71 1017.4
20260905143227 27 166 9.7 17.7 0.00 0.00 0.00 73 1017.4
20260905141227 26 74 1.6 4.8 0.00 0.00 0.00 78 1017.1
20260905140226 25 166 4.8 9.7 0.00 0.00 0.00 81 1017.3
20260905135258 25 131 3.2 11.3 0.00 0.00 0.00 85 1017.2
20260905134327 25 163 6.4 11.3 0.00 0.00 0.00 88 1017.4
20260905133329 25 152 4.8 11.3 0.00 0.00 0.00 87 1017.2
20260905132328 25 134 3.2 8.0 0.00 0.00 0.00 89 1017.5
20260905131328 25 87 3.2 14.5 0.00 0.00 0.00 90 1017.7
20260905130327 25 148 1.6 4.8 0.00 0.00 0.00 93 1017.3
20260905124428 24 92 4.8 11.3 0.00 0.00 0.00 94 1017.2
20260905123429 24 180 0.0 0.0 0.00 0.00 0.00 95 1016.5
20260905122426 24 180 0.0 0.0 0.00 0.00 0.00 96 1016.2
20260905120429 23 180 1.6 3.2 0.00 0.00 0.00 96 1016.1
20260905115526 23 163 0.0 3.2 0.00 0.00 0.00 96 1016.2
20260905114528 23 90 0.0 0.0 0.00 0.00 0.00 96 1016.1
20260905113529 23 90 0.0 0.0 0.00 0.00 0.00 96 1016.0
20260905112628 23 90 0.0 0.0 0.00 0.00 0.00 96 1015.9
20260905112526 23 90 0.0 0.0 0.00 0.00 0.00 96 1015.8
20260905111530 23 90 0.0 0.0 0.00 0.00 0.00 96 1015.8
20260905110626 23 90 0.0 0.0 0.00 0.00 0.00 95 1015.6
20260905105726 23 90 0.0 0.0 0.00 0.00 0.00 95 1015.5
20260905104728 23 90 0.0 0.0 0.00 0.00 0.00 96 1015.5
20260905103729 23 90 0.0 0.0 0.00 0.00 0.00 95 1015.4
20260905101729 23 90 0.0 0.0 0.00 0.00 0.00 96 1015.7
20260905100728 23 90 0.0 0.0 0.00 0.00 0.00 95 1015.5
20260905094728 24 90 0.0 0.0 0.00 0.00 0.00 95 1015.5
20260905093726 23 90 0.0 0.0 0.00 0.00 0.00 95 1015.5
20260905091727 23 90 0.0 0.0 0.00 0.00 0.00 95 1015.3
20260905090728 23 90 0.0 0.0 0.00 0.00 0.00 94 1015.1
20260905085728 23 90 0.0 0.0 0.00 0.00 0.00 95 1015.3
20260905084729 23 90 0.0 0.0 0.00 0.00 0.00 94 1015.3
20260905083728 24 90 0.0 0.0 0.00 0.00 0.00 94 1015.1
20260905082727 24 90 0.0 0.0 0.00 0.00 0.00 94 1015.0
20260905081726 24 90 0.0 0.0 0.00 0.00 0.00 93 1014.9
20260905080728 24 90 0.0 0.0 0.00 0.00 0.00 94 1014.9
20260905075727 24 90 0.0 0.0 0.00 0.00 0.00 94 1014.8
20260905073830 24 90 0.0 0.0 0.00 0.00 0.00 93 1014.9
20260905072829 24 90 0.0 0.0 0.00 0.00 0.00 93 1015.0
20260905071927 25 90 0.0 0.0 0.00 0.00 0.00 93 1015.1
20260905070928 25 90 0.0 0.0 0.00 0.00 0.00 92 1015.3
20260905065928 25 90 0.0 0.0 0.00 0.00 0.00 91 1015.3
20260905064027 25 90 0.0 0.0 0.00 0.00 0.00 90 1015.4
20260905062126 25 90 0.0 0.0 0.00 0.00 0.00 89 1015.6
20260905060129 26 90 0.0 0.0 0.00 0.00 0.00 87 1015.8
20260905054128 26 90 0.0 0.0 0.00 0.00 0.00 86 1015.9
20260905052226 26 90 0.0 0.0 0.00 0.00 0.00 86 1016.0
20260905051228 26 90 0.0 0.0 0.00 0.00 0.00 86 1016.0
20260905050229 26 157 0.0 0.0 0.00 0.00 0.00 85 1016.0
20260905045326 26 157 0.0 0.0 0.00 0.00 0.00 86 1016.1
20260905043328 26 157 0.0 0.0 0.00 0.00 0.00 85 1016.2
20260905042427 26 157 0.0 0.0 0.00 0.00 0.00 85 1016.0
20260905041428 26 157 0.0 0.0 0.00 0.00 0.00 85 1015.9
20260905040428 26 157 0.0 0.0 0.00 0.00 0.00 82 1016.1
20260905035512 26 157 0.0 0.0 0.00 0.00 0.00 82 1016.2
20260905035413 26 157 0.0 0.0 0.00 0.00 0.00 83 1016.1
20260905034412 26 157 0.0 0.0 0.00 0.00 0.00 82 1016.0
20260905033510 26 157 0.0 0.0 0.00 0.00 0.00 82 1016.0
20260905032511 27 157 0.0 0.0 0.00 0.00 0.00 79 1015.8
20260905030513 27 157 0.0 0.0 0.00 0.00 0.00 79 1016.0
20260905025511 27 157 0.0 0.0 0.00 0.00 0.00 78 1016.1
20260905024513 27 157 0.0 0.0 0.00 0.00 0.00 77 1016.1
20260905022511 28 157 0.0 0.0 0.00 0.00 0.00 74 1016.0
20260905022412 28 157 0.0 0.0 0.00 0.00 0.00 74 1016.2
20260905021414 28 157 0.0 0.0 0.00 0.00 0.00 73 1016.1
20260905020510 28 157 0.0 0.0 0.00 0.00 0.00 73 1015.9
20260905014610 28 180 0.0 0.0 0.00 0.00 0.00 72 1015.8
20260905013610 29 180 0.0 0.0 0.00 0.00 0.00 70 1015.7
20260905011710 29 180 0.0 0.0 0.00 0.00 0.00 69 1015.7
20260905011610 29 180 0.0 0.0 0.00 0.00 0.00 69 1015.6
20260905010613 30 180 0.0 0.0 0.00 0.00 0.00 67 1015.5
20260905005612 30 180 0.0 0.0 0.00 0.00 0.00 66 1015.5
20260905004709 30 202 0.0 0.0 0.00 0.00 0.00 65 1015.5
20260905003714 31 202 0.0 0.0 0.00 0.00 0.00 62 1015.4
20260905002812 31 202 0.0 0.0 0.00 0.00 0.00 59 1015.3
20260905001813 32 202 0.0 0.0 0.00 0.00 0.00 58 1015.3
20260905000811 32 202 0.0 0.0 0.00 0.00 0.00 56 1015.3
20260905000711 32 202 0.0 0.0 0.00 0.00 0.00 57 1015.3
20260904235713 32 225 0.0 1.6 0.00 0.00 0.00 56 1015.2
20260904232711 34 228 0.0 1.6 0.00 0.00 0.00 50 1015.3
20260904231712 34 270 0.0 1.6 0.00 0.00 0.00 49 1015.2
20260904224712 35 270 1.6 3.2 0.00 0.00 0.00 44 1015.4
20260904224611 35 270 1.6 3.2 0.00 0.00 0.00 44 1015.4
20260904223611 35 270 0.0 1.6 0.00 0.00 0.00 46 1015.4
20260904223512 35 270 3.2 6.4 0.00 0.00 0.00 46 1015.3
20260904222611 35 239 0.0 1.6 0.00 0.00 0.00 46 1015.3
20260904221612 35 256 4.8 6.4 0.00 0.00 0.00 45 1015.4
20260904220611 35 270 3.2 3.2 0.00 0.00 0.00 44 1015.5
20260904215612 35 258 6.4 8.0 0.00 0.00 0.00 44 1015.6
20260904214612 35 270 1.6 3.2 0.00 0.00 0.00 44 1015.6
20260904213709 35 270 4.8 6.4 0.00 0.00 0.00 44 1015.7
20260904212809 35 289 1.6 3.2 0.00 0.00 0.00 43 1015.7
20260904211812 36 280 0.0 0.0 0.00 0.00 0.00 43 1015.9
20260904210812 36 327 0.0 4.8 0.00 0.00 0.00 43 1015.8
20260904205911 36 270 0.0 0.0 0.00 0.00 0.00 44 1016.0
20260904204913 35 305 1.6 4.8 0.00 0.00 0.00 46 1016.0
20260904203913 36 253 6.4 8.0 0.00 0.00 0.00 46 1016.1
20260904203010 35 343 0.0 4.8 0.00 0.00 0.00 46 1016.3
20260904202013 35 213 4.8 8.0 0.00 0.00 0.00 47 1016.4
20260904201111 35 224 8.0 14.5 0.00 0.00 0.00 47 1016.5
20260904195210 35 282 3.2 6.4 0.00 0.00 0.00 46 1016.7
20260904194212 35 355 1.6 3.2 0.00 0.00 0.00 47 1016.8
20260904193213 35 346 3.2 6.4 0.00 0.00 0.00 47 1017.1
20260904192211 35 7 3.2 6.4 0.00 0.00 0.00 48 1017.3
20260904191212 35 265 4.8 9.7 0.00 0.00 0.00 49 1017.5
20260904190212 35 280 3.2 9.7 0.00 0.00 0.00 49 1017.6
20260904185311 35 305 1.6 4.8 0.00 0.00 0.00 49 1017.5
20260904183410 35 323 4.8 9.7 0.00 0.00 0.00 47 1017.9
20260904182414 36 270 1.6 6.4 0.00 0.00 0.00 49 1018.2
20260904181411 35 332 3.2 6.4 0.00 0.00 0.00 49 1018.0
20260904180410 35 271 3.2 6.4 0.00 0.00 0.00 49 1018.3
20260904175412 35 225 1.6 4.8 0.00 0.00 0.00 51 1018.4
20260904174412 35 270 0.0 3.2 0.00 0.00 0.00 52 1018.5
20260904173510 34 347 6.4 11.3 0.00 0.00 0.00 52 1018.4
20260904173409 34 345 3.2 6.4 0.00 0.00 0.00 53 1018.4